SBI7520 UTDD-ZMUB

Flight info

Callsign SBI7520
Flight time N/A
Altitude 37000
Route UTDD N0448F370 JD B350 VADER L138 TADOT L141 KAMUD A468 XKC B215 FKG G588 IM H84 SER IM ZMUB
Aircraft B738/M-SDGIWZ/S

Departure

Time 2026-04-18 11:57
Airport Dushanbe International Airport (UTDD)

Arrival

Time N/A
Airport Buyant-Ukhaa International Airport (ZMUB)
Time Latitude Longitude Altitude Speed Heading
2026-04-18 11:44 38.54756 68.81748 2584 ft 0 kts 269°
2026-04-18 11:54 38.54756 68.81747 2584 ft 0 kts 269°
2026-04-18 11:54 38.54750 68.81705 2584 ft 8 kts 239°
2026-04-18 11:54 38.54674 68.81651 2584 ft 16 kts 231°
2026-04-18 11:54 38.54653 68.81484 2584 ft 23 kts 258°
2026-04-18 11:55 38.54647 68.81242 2584 ft 28 kts 271°
2026-04-18 11:55 38.54648 68.81010 2584 ft 24 kts 270°
2026-04-18 11:55 38.54648 68.80808 2584 ft 21 kts 271°
2026-04-18 11:55 38.54573 68.80718 2584 ft 15 kts 181°
2026-04-18 11:56 38.54475 68.80720 2584 ft 15 kts 180°
2026-04-18 11:56 38.54341 68.80791 2584 ft 29 kts 103°
2026-04-18 11:56 38.54335 68.81325 2584 ft 94 kts 90°
2026-04-18 11:56 38.54333 68.82422 2584 ft 152 kts 91°
2026-04-18 11:57 38.54335 68.83975 2696 ft 188 kts 91°
2026-04-18 11:57 38.54314 68.85701 3125 ft 202 kts 92°
2026-04-18 11:57 38.54301 68.87469 3880 ft 197 kts 91°
2026-04-18 11:57 38.54304 68.89266 4237 ft 213 kts 90°
2026-04-18 11:58 38.54308 68.91274 4357 ft 239 kts 91°
2026-04-18 11:58 38.54291 68.93442 4857 ft 248 kts 91°
2026-04-18 11:58 38.54293 68.95669 5387 ft 255 kts 90°
2026-04-18 11:58 38.54297 68.97953 5936 ft 261 kts 91°
2026-04-18 11:59 38.54294 69.00258 6622 ft 266 kts 91°
2026-04-18 11:59 38.54294 69.02712 7077 ft 281 kts 90°
2026-04-18 11:59 38.54170 69.05183 7823 ft 283 kts 102°
2026-04-18 11:59 38.53447 69.07497 8387 ft 289 kts 127°
2026-04-18 12:00 38.52049 69.09309 9157 ft 287 kts 142°
2026-04-18 12:00 38.50333 69.10635 9756 ft 292 kts 161°
2026-04-18 12:00 38.48354 69.10938 10403 ft 293 kts 183°
2026-04-18 12:00 38.46272 69.10845 10639 ft 312 kts 179°
2026-04-18 12:01 38.41642 69.10628 10812 ft 354 kts 194°
2026-04-18 12:01 38.39406 69.09281 11296 ft 359 kts 215°
2026-04-18 12:01 38.37484 69.07307 11755 ft 366 kts 223°
2026-04-18 12:02 38.35961 69.04681 12219 ft 371 kts 247°
2026-04-18 12:02 38.35334 69.01515 12938 ft 369 kts 262°
2026-04-18 12:02 38.35155 68.98250 13333 ft 375 kts 271°
2026-04-18 12:02 38.35411 68.94966 13991 ft 374 kts 281°
2026-04-18 12:03 38.36280 68.91851 14325 ft 380 kts 301°
2026-04-18 12:03 38.37900 68.89250 15087 ft 374 kts 313°
2026-04-18 12:03 38.39836 68.86977 15300 ft 384 kts 326°
2026-04-18 12:03 38.42269 68.85637 15917 ft 382 kts 347°
2026-04-18 12:04 38.44908 68.85212 16271 ft 388 kts 356°
2026-04-18 12:04 38.47609 68.85338 16659 ft 393 kts 10°
2026-04-18 12:04 38.50137 68.86638 17062 ft 399 kts 33°
2026-04-18 12:04 38.52235 68.88936 17549 ft 401 kts 42°
2026-04-18 12:05 38.54120 68.91587 17691 ft 412 kts 53°
2026-04-18 12:05 38.55359 68.94898 18011 ft 417 kts 76°
2026-04-18 12:05 38.55567 68.98582 18411 ft 418 kts 95°
2026-04-18 12:05 38.55211 69.02239 18783 ft 420 kts 98°
2026-04-18 12:06 38.54753 69.05913 19022 ft 423 kts 99°
2026-04-18 12:06 38.54496 69.09653 18999 ft 421 kts 92°
2026-04-18 12:06 38.54471 69.13362 19016 ft 415 kts 91°
2026-04-18 12:06 38.54459 69.17028 19122 ft 417 kts 92°
2026-04-18 12:07 38.54435 69.20715 19513 ft 418 kts 92°
2026-04-18 12:07 38.54429 69.24484 19707 ft 423 kts 90°
2026-04-18 12:07 38.54614 69.28225 20094 ft 425 kts 84°
2026-04-18 12:07 38.55354 69.31874 20251 ft 433 kts 66°
2026-04-18 12:08 38.56935 69.35129 20593 ft 434 kts 52°
2026-04-18 12:08 38.58818 69.38176 20698 ft 441 kts 52°
2026-04-18 12:08 38.60704 69.41254 20992 ft 442 kts 52°
2026-04-18 12:08 38.62585 69.44364 21202 ft 445 kts 52°
2026-04-18 12:09 38.64503 69.47512 21467 ft 447 kts 52°
2026-04-18 12:09 38.66416 69.50633 21728 ft 448 kts 52°
2026-04-18 12:09 38.68335 69.53755 21968 ft 450 kts 51°
2026-04-18 12:09 38.70261 69.56888 22184 ft 452 kts 51°
2026-04-18 12:10 38.72217 69.60066 22457 ft 453 kts 51°
2026-04-18 12:10 38.74144 69.63197 22695 ft 454 kts 51°
2026-04-18 12:10 38.76114 69.66395 22915 ft 456 kts 52°
2026-04-18 12:10 38.78080 69.69590 23141 ft 457 kts 52°
2026-04-18 12:11 38.80026 69.72754 23359 ft 459 kts 52°
2026-04-18 12:11 38.82023 69.76003 23562 ft 461 kts 52°
2026-04-18 12:11 38.83998 69.79218 23769 ft 462 kts 52°
2026-04-18 12:11 38.85979 69.82446 23958 ft 464 kts 51°
2026-04-18 12:12 38.87977 69.85703 24155 ft 465 kts 51°
2026-04-18 12:12 38.89969 69.88955 24335 ft 467 kts 51°
2026-04-18 12:12 38.91970 69.92225 24520 ft 468 kts 52°
2026-04-18 12:12 38.93990 69.95528 24689 ft 470 kts 52°
2026-04-18 12:13 38.95987 69.98797 24862 ft 471 kts 52°
2026-04-18 12:13 38.98014 70.02118 25051 ft 472 kts 52°
2026-04-18 12:13 39.00027 70.05421 25203 ft 474 kts 52°
2026-04-18 12:13 39.02059 70.08757 25375 ft 475 kts 52°
2026-04-18 12:14 39.04089 70.12093 25536 ft 476 kts 52°
2026-04-18 12:14 39.06118 70.15433 25685 ft 478 kts 52°
2026-04-18 12:14 39.08163 70.18801 25840 ft 479 kts 52°
2026-04-18 12:14 39.10229 70.22208 26011 ft 480 kts 52°
2026-04-18 12:15 39.12258 70.25556 26129 ft 481 kts 52°
2026-04-18 12:15 39.14334 70.28986 26292 ft 482 kts 52°
2026-04-18 12:15 39.16379 70.32368 26416 ft 483 kts 52°
2026-04-18 12:15 39.18447 70.35792 26539 ft 485 kts 52°
2026-04-18 12:16 39.20492 70.39181 26692 ft 485 kts 52°
2026-04-18 12:16 39.22560 70.42613 26811 ft 487 kts 52°
2026-04-18 12:16 39.24643 70.46072 26937 ft 488 kts 52°
2026-04-18 12:16 39.26733 70.49499 27063 ft 488 kts 51°
2026-04-18 12:17 39.28869 70.52882 27202 ft 489 kts 50°
2026-04-18 12:17 39.31023 70.56266 27304 ft 490 kts 50°
2026-04-18 12:17 39.33174 70.59670 27440 ft 491 kts 50°
2026-04-18 12:17 39.35323 70.63088 27542 ft 492 kts 50°
2026-04-18 12:18 39.37484 70.66533 27654 ft 493 kts 51°
2026-04-18 12:18 39.39646 70.69980 27765 ft 493 kts 50°
2026-04-18 12:18 39.41781 70.73389 27883 ft 494 kts 51°
2026-04-18 12:18 39.43872 70.76936 27948 ft 496 kts 55°
2026-04-18 12:19 39.45716 70.80723 28044 ft 496 kts 60°
2026-04-18 12:19 39.47403 70.84596 28210 ft 496 kts 60°
2026-04-18 12:19 39.49095 70.88488 28288 ft 497 kts 60°
2026-04-18 12:19 39.50799 70.92359 28445 ft 496 kts 60°
2026-04-18 12:20 39.52481 70.96190 28672 ft 493 kts 60°
2026-04-18 12:20 39.54155 71.00037 28798 ft 493 kts 60°
2026-04-18 12:20 39.55843 71.03941 28972 ft 492 kts 60°
2026-04-18 12:21 39.59152 71.11633 29165 ft 493 kts 61°
2026-04-18 12:21 39.60817 71.15524 29333 ft 492 kts 61°
2026-04-18 12:21 39.62472 71.19391 29539 ft 490 kts 60°
2026-04-18 12:21 39.64114 71.23216 29643 ft 490 kts 60°
2026-04-18 12:22 39.65781 71.27097 29724 ft 491 kts 60°
2026-04-18 12:22 39.69187 71.34744 29927 ft 492 kts 57°
2026-04-18 12:22 39.71012 71.38498 30050 ft 491 kts 57°
2026-04-18 12:23 39.72828 71.42240 30169 ft 491 kts 57°
2026-04-18 12:23 39.74627 71.45995 30353 ft 489 kts 57°
2026-04-18 12:23 39.76402 71.49748 30550 ft 488 kts 57°
2026-04-18 12:23 39.78160 71.53479 30699 ft 487 kts 57°
2026-04-18 12:24 39.79923 71.57207 30864 ft 486 kts 57°
2026-04-18 12:24 39.81694 71.60945 30992 ft 486 kts 57°
2026-04-18 12:24 39.83474 71.64698 31079 ft 487 kts 57°
2026-04-18 12:25 39.86992 71.72176 31318 ft 486 kts 58°
2026-04-18 12:25 39.88725 71.75897 31440 ft 486 kts 58°
2026-04-18 12:25 39.90483 71.79654 31537 ft 486 kts 57°
2026-04-18 12:26 39.94012 71.87138 31733 ft 486 kts 57°
2026-04-18 12:26 39.97514 71.94634 31915 ft 486 kts 57°
2026-04-18 12:26 39.99266 71.98421 32025 ft 486 kts 57°
2026-04-18 12:27 40.01005 72.02177 32168 ft 485 kts 57°
2026-04-18 12:27 40.02751 72.05948 32287 ft 485 kts 57°
2026-04-18 12:27 40.04475 72.09656 32409 ft 484 kts 57°
2026-04-18 12:27 40.06226 72.13415 32611 ft 481 kts 57°
2026-04-18 12:28 40.07938 72.17091 32740 ft 480 kts 57°
2026-04-18 12:28 40.11408 72.24543 32926 ft 480 kts 57°
2026-04-18 12:29 40.14847 72.31995 33083 ft 481 kts 57°
2026-04-18 12:29 40.18272 72.39523 33266 ft 481 kts 57°
2026-04-18 12:30 40.21715 72.47006 33446 ft 481 kts 56°
2026-04-18 12:30 40.23438 72.50723 33583 ft 479 kts 56°
2026-04-18 12:30 40.25148 72.54429 33720 ft 478 kts 56°
2026-04-18 12:31 40.28478 72.61956 33893 ft 479 kts 60°
2026-04-18 12:31 40.29901 72.65874 33997 ft 479 kts 64°
2026-04-18 12:31 40.31269 72.69804 34060 ft 479 kts 63°
2026-04-18 12:32 40.34106 72.77685 34218 ft 478 kts 63°
2026-04-18 12:32 40.36964 72.85504 34373 ft 478 kts 63°
2026-04-18 12:33 40.39777 72.93366 34521 ft 477 kts 63°
2026-04-18 12:33 40.42606 73.01255 34673 ft 477 kts 63°
2026-04-18 12:34 40.45456 73.09098 34810 ft 477 kts 63°
2026-04-18 12:34 40.48262 73.16936 34977 ft 476 kts 63°
2026-04-18 12:35 40.51039 73.24783 35115 ft 475 kts 63°
2026-04-18 12:35 40.53823 73.32643 35256 ft 475 kts 63°
2026-04-18 12:36 40.56604 73.40485 35410 ft 474 kts 63°
2026-04-18 12:36 40.59388 73.48297 35544 ft 473 kts 63°
2026-04-18 12:37 40.62151 73.56063 35707 ft 472 kts 63°
2026-04-18 12:37 40.64913 73.63900 35841 ft 472 kts 64°
2026-04-18 12:38 40.67639 73.71714 35971 ft 471 kts 64°
2026-04-18 12:38 40.70375 73.79491 36115 ft 469 kts 64°
2026-04-18 12:39 40.73132 73.87264 36244 ft 468 kts 64°
2026-04-18 12:39 40.75855 73.95068 36370 ft 467 kts 64°
2026-04-18 12:40 40.78517 74.02813 36493 ft 467 kts 64°
2026-04-18 12:40 40.81196 74.10597 36604 ft 466 kts 64°
2026-04-18 12:41 40.83879 74.18343 36716 ft 465 kts 64°
2026-04-18 12:41 40.86582 74.26099 36827 ft 465 kts 64°
2026-04-18 12:42 40.89264 74.33829 36936 ft 464 kts 64°
2026-04-18 12:42 40.91923 74.41516 37070 ft 463 kts 64°
2026-04-18 12:43 40.94577 74.49278 37075 ft 465 kts 64°
2026-04-18 12:43 40.97208 74.57094 37073 ft 466 kts 64°
2026-04-18 12:44 40.99867 74.64916 37075 ft 468 kts 64°
2026-04-18 12:44 41.02552 74.72787 37030 ft 471 kts 65°
2026-04-18 12:45 41.05213 74.80705 36987 ft 473 kts 65°
2026-04-18 12:45 41.07890 74.88651 36941 ft 475 kts 63°
2026-04-18 12:46 41.11058 74.96262 36939 ft 474 kts 58°
2026-04-18 12:46 41.14319 75.03877 36964 ft 475 kts 59°
2026-04-18 12:47 41.17462 75.11483 37006 ft 474 kts 59°
2026-04-18 12:47 41.20661 75.19155 37022 ft 475 kts 59°
2026-04-18 12:48 41.23842 75.26811 37005 ft 474 kts 59°
2026-04-18 12:48 41.26994 75.34467 36961 ft 473 kts 59°
2026-04-18 12:49 41.30119 75.42107 37008 ft 472 kts 59°
2026-04-18 12:49 41.33244 75.49768 37111 ft 471 kts 59°
2026-04-18 12:50 41.36376 75.57422 37187 ft 471 kts 59°
2026-04-18 12:50 41.39492 75.65086 37210 ft 472 kts 60°
2026-04-18 12:51 41.42293 75.72967 37205 ft 475 kts 71°
2026-04-18 12:51 41.42979 75.77252 37219 ft 475 kts 84°
2026-04-18 12:51 41.43210 75.81641 37210 ft 476 kts 87°
2026-04-18 12:52 41.43696 75.90408 37207 ft 477 kts 84°
2026-04-18 12:52 41.44316 75.99161 37209 ft 478 kts 85°
2026-04-18 12:53 41.44833 76.08025 37209 ft 479 kts 86°
2026-04-18 12:53 41.45255 76.16821 37196 ft 479 kts 86°
2026-04-18 12:54 41.45714 76.25626 37182 ft 477 kts 85°
2026-04-18 12:54 41.46157 76.34448 37183 ft 477 kts 86°
2026-04-18 12:55 41.46606 76.43219 37181 ft 478 kts 85°
2026-04-18 12:55 41.47071 76.52049 37182 ft 478 kts 85°
2026-04-18 12:56 41.47507 76.60874 37182 ft 477 kts 85°
2026-04-18 12:56 41.47944 76.69675 37182 ft 478 kts 86°
2026-04-18 12:57 41.48373 76.78471 37181 ft 478 kts 86°
2026-04-18 12:57 41.48873 76.87286 37183 ft 478 kts 85°
2026-04-18 12:58 41.49359 76.96100 37182 ft 477 kts 85°
2026-04-18 12:58 41.49809 77.04938 37181 ft 477 kts 85°
2026-04-18 12:59 41.50213 77.13690 37181 ft 475 kts 86°
2026-04-18 12:59 41.50548 77.22475 37182 ft 475 kts 86°
2026-04-18 13:00 41.50956 77.31275 37182 ft 477 kts 85°
2026-04-18 13:00 41.51389 77.40082 37180 ft 475 kts 85°
2026-04-18 13:01 41.51740 77.48859 37182 ft 476 kts 86°
2026-04-18 13:01 41.52055 77.57675 37182 ft 477 kts 86°
2026-04-18 13:02 41.52390 77.66479 37181 ft 475 kts 86°
2026-04-18 13:02 41.52731 77.75231 37183 ft 476 kts 86°
2026-04-18 13:03 41.53073 77.84047 37182 ft 476 kts 86°
2026-04-18 13:03 41.53571 77.97270 37182 ft 475 kts 86°
2026-04-18 13:04 41.53909 78.06054 37182 ft 475 kts 86°
2026-04-18 13:04 41.54243 78.14828 37182 ft 476 kts 86°
2026-04-18 13:05 41.54563 78.23634 37182 ft 477 kts 86°
2026-04-18 13:05 41.54877 78.32469 37180 ft 475 kts 86°
2026-04-18 13:06 41.55181 78.41251 37182 ft 475 kts 86°
2026-04-18 13:06 41.55498 78.50043 37181 ft 476 kts 86°
2026-04-18 13:07 41.55867 78.58857 37181 ft 477 kts 85°
2026-04-18 13:07 41.56206 78.67638 37181 ft 475 kts 86°
2026-04-18 13:08 41.56514 78.76430 37182 ft 476 kts 87°
2026-04-18 13:08 41.56804 78.85300 37182 ft 477 kts 87°
2026-04-18 13:09 41.57108 78.94073 37181 ft 476 kts 86°
2026-04-18 13:09 41.57467 79.02883 37182 ft 476 kts 86°
2026-04-18 13:10 41.57816 79.11674 37183 ft 474 kts 85°
2026-04-18 13:10 41.58190 79.20454 37180 ft 473 kts 85°
2026-04-18 13:11 41.58540 79.29148 37183 ft 472 kts 85°
2026-04-18 13:11 41.58893 79.37898 37181 ft 474 kts 85°
2026-04-18 13:12 41.59227 79.46684 37183 ft 475 kts 85°
2026-04-18 13:12 41.59567 79.55454 37182 ft 474 kts 85°
2026-04-18 13:13 41.59894 79.64220 37182 ft 473 kts 85°
2026-04-18 13:13 41.60215 79.72977 37183 ft 473 kts 86°
2026-04-18 13:14 41.60536 79.81734 37182 ft 473 kts 86°
2026-04-18 13:14 41.60844 79.90506 37183 ft 473 kts 86°
2026-04-18 13:15 41.61130 79.99271 37189 ft 473 kts 86°
2026-04-18 13:15 41.61424 80.07989 37200 ft 473 kts 86°
2026-04-18 13:16 41.61702 80.16773 37209 ft 473 kts 86°
2026-04-18 13:16 41.61987 80.25529 37207 ft 473 kts 85°
2026-04-18 13:17 41.62288 80.34312 37210 ft 474 kts 85°
2026-04-18 13:17 41.62577 80.43083 37207 ft 474 kts 85°
2026-04-18 13:18 41.62848 80.51861 37209 ft 473 kts 85°
2026-04-18 13:18 41.63119 80.60632 37208 ft 474 kts 86°
2026-04-18 13:19 41.63357 80.69403 37209 ft 474 kts 86°
2026-04-18 13:19 41.63595 80.78162 37209 ft 473 kts 86°
2026-04-18 13:20 41.63831 80.86922 37210 ft 474 kts 86°
2026-04-18 13:20 41.64076 80.95692 37208 ft 473 kts 86°
2026-04-18 13:21 41.64294 81.04466 37210 ft 474 kts 85°
2026-04-18 13:21 41.64520 81.13201 37209 ft 472 kts 84°
2026-04-18 13:22 41.64735 81.21944 37209 ft 471 kts 84°
2026-04-18 13:22 41.64953 81.30675 37209 ft 471 kts 84°
2026-04-18 13:23 41.65163 81.39447 37208 ft 472 kts 84°
2026-04-18 13:23 41.65366 81.48181 37208 ft 472 kts 84°
2026-04-18 13:24 41.65557 81.56942 37209 ft 471 kts 84°
2026-04-18 13:24 41.65743 81.65613 37210 ft 470 kts 85°
2026-04-18 13:25 41.65917 81.74375 37210 ft 471 kts 85°
2026-04-18 13:25 41.66090 81.83089 37209 ft 472 kts 85°
2026-04-18 13:26 41.66272 81.91869 37209 ft 472 kts 85°
2026-04-18 13:26 41.66427 82.00635 37208 ft 472 kts 85°
2026-04-18 13:27 41.66580 82.09381 37208 ft 472 kts 85°
2026-04-18 13:27 41.66713 82.18085 37207 ft 471 kts 85°
2026-04-18 13:28 41.66851 82.26884 37210 ft 473 kts 85°
2026-04-18 13:28 41.67032 82.35641 37227 ft 472 kts 84°
2026-04-18 13:29 41.67217 82.44396 37294 ft 471 kts 85°
2026-04-18 13:29 41.67334 82.53104 37363 ft 471 kts 85°
2026-04-18 13:30 41.67393 82.61880 37396 ft 472 kts 85°
2026-04-18 13:30 41.67484 82.70606 37399 ft 473 kts 86°
2026-04-18 13:31 41.67622 82.79385 37392 ft 470 kts 80°
2026-04-18 13:31 41.68275 82.83607 37402 ft 461 kts 67°
2026-04-18 13:31 41.69456 82.87546 37400 ft 458 kts 60°
2026-04-18 13:32 41.72638 82.94830 37398 ft 455 kts 53°
2026-04-18 13:32 41.76008 83.02002 37397 ft 456 kts 54°
2026-04-18 13:33 41.79328 83.09239 37398 ft 456 kts 54°
2026-04-18 13:33 41.82648 83.16415 37397 ft 455 kts 54°
2026-04-18 13:34 41.85997 83.23599 37397 ft 456 kts 54°
2026-04-18 13:34 41.89347 83.30769 37397 ft 455 kts 54°
2026-04-18 13:35 41.92688 83.37995 37398 ft 455 kts 54°
2026-04-18 13:35 41.95985 83.45224 37398 ft 456 kts 54°
2026-04-18 13:36 41.99295 83.52455 37397 ft 456 kts 54°
2026-04-18 13:36 42.02619 83.59697 37396 ft 455 kts 53°
2026-04-18 13:37 42.05933 83.66866 37398 ft 455 kts 54°
2026-04-18 13:37 42.09256 83.74142 37398 ft 456 kts 55°
2026-04-18 13:38 42.12528 83.81405 37398 ft 456 kts 54°
2026-04-18 13:38 42.15826 83.88701 37398 ft 456 kts 54°
2026-04-18 13:39 42.19134 83.95953 37398 ft 455 kts 54°
2026-04-18 13:39 42.22480 84.03133 37398 ft 454 kts 52°
2026-04-18 13:40 42.26091 84.10104 37399 ft 454 kts 51°
2026-04-18 13:40 42.29689 84.17094 37398 ft 454 kts 51°
2026-04-18 13:41 42.33246 84.24077 37398 ft 453 kts 51°
2026-04-18 13:41 42.36800 84.31102 37399 ft 453 kts 51°
2026-04-18 13:42 42.40347 84.38129 37398 ft 454 kts 51°
2026-04-18 13:42 42.43872 84.45139 37398 ft 453 kts 51°
2026-04-18 13:43 42.47400 84.52211 37399 ft 454 kts 52°
2026-04-18 13:43 42.50923 84.59326 37397 ft 455 kts 52°
2026-04-18 13:44 42.54445 84.66429 37396 ft 453 kts 52°
2026-04-18 13:44 42.57971 84.73447 37398 ft 453 kts 52°
2026-04-18 13:45 42.61501 84.80513 37399 ft 455 kts 52°
2026-04-18 13:45 42.65010 84.87626 37397 ft 454 kts 52°
2026-04-18 13:46 42.68518 84.94740 37397 ft 454 kts 52°
2026-04-18 13:46 42.72026 85.01826 37398 ft 455 kts 52°
2026-04-18 13:47 42.75566 85.08992 37398 ft 457 kts 52°
2026-04-18 13:47 42.79104 85.16159 37398 ft 460 kts 53°
2026-04-18 13:48 42.82648 85.23402 37398 ft 463 kts 53°
2026-04-18 13:48 42.86180 85.30689 37399 ft 465 kts 53°
2026-04-18 13:49 42.89738 85.38046 37396 ft 466 kts 53°
2026-04-18 13:49 42.93334 85.45426 37398 ft 465 kts 53°
2026-04-18 13:50 42.96875 85.52707 37398 ft 462 kts 53°
2026-04-18 13:50 43.00392 85.60024 37397 ft 463 kts 53°
2026-04-18 13:51 43.03936 85.67322 37398 ft 462 kts 53°
2026-04-18 13:51 43.07494 85.74663 37398 ft 462 kts 53°
2026-04-18 13:52 43.11023 85.81997 37398 ft 463 kts 53°
2026-04-18 13:52 43.14540 85.89307 37399 ft 463 kts 53°
2026-04-18 13:53 43.18030 85.96648 37398 ft 462 kts 54°
2026-04-18 13:53 43.21544 86.04018 37398 ft 463 kts 53°
2026-04-18 13:54 43.25104 86.11327 37398 ft 462 kts 53°
2026-04-18 13:54 43.28674 86.18662 37398 ft 462 kts 53°
2026-04-18 13:55 43.32222 86.25980 37399 ft 463 kts 53°
2026-04-18 13:55 43.35803 86.33342 37397 ft 463 kts 53°
2026-04-18 13:56 43.39347 86.40650 37398 ft 463 kts 53°
2026-04-18 13:56 43.42878 86.48006 37397 ft 462 kts 53°
2026-04-18 13:57 43.46444 86.55334 37398 ft 461 kts 52°
2026-04-18 13:57 43.50017 86.62631 37398 ft 462 kts 52°
2026-04-18 13:58 43.53583 86.70017 37399 ft 463 kts 53°
2026-04-18 13:58 43.57105 86.77418 37398 ft 462 kts 53°
2026-04-18 13:59 43.60589 86.84779 37398 ft 463 kts 54°
2026-04-18 13:59 43.64099 86.92220 37398 ft 463 kts 54°